Tracking 29034 objects as of 24-Jun-2024
HD Live streaming from Space Station
objects crossing your sky now

STARLINK-30214

Track STARLINK-30214 now!
10-day predictions
STARLINK-30214 is classified as:


NORAD ID: 57411
Int'l Code: 2023-102H
Perigee: 565.3 km
Apogee: 567.3 km
Inclination: 43.0 °
Period: 95.8 minutes
Semi major axis: 6937 km
RCS: Unknown
Launch date: July 20, 2023
Source: United States (US)
Launch site: AIR FORCE WESTERN TEST RANGE (AFWTR)
Your satellite tracking list
Your tracking list is empty




NASA's NSSDC Master Catalog

Two Line Element Set (TLE):
1 57411U 23102H   24176.01177171  .00008699  00000-0  65861-3 0  9992
2 57411  43.0040  37.3773 0001466 259.9788 100.0889 15.02515124 52375
Source of the keplerian elements: AFSPC